Terminal Aerodrome Forecast
Issued by NWS Salt Lake City, UT

Home | Current Version | Previous Version | Text Only | Print | Product List | Glossary On
Versions: 1 2 3 4 5 6 7 8 9 10 11 12 13 14 15 16 17 18 19 20 21 22 23 24 25 26 27 28 29 30 31 32 33 34 35 36 37 38 39 40 41 42 43 44 45 46
000
FTUS45 KSLC 021740
TAFSLC
TAF
KSLC 021740Z 0218/0324 33007KT P6SM FEW150 BKN200
     FM030000 16010G18KT P6SM FEW100 BKN150
     FM030600 17010G17KT P6SM VCSH SCT100 BKN120
     FM031400 17012G20KT P6SM -SHRA SCT080 BKN100=

USA.gov is the U.S. government's official web portal to all federal, state and local government web resources and services.